Location: ????????
(55.6333°N, 37.7000°E)
Time: 01:30:30
(UTC+00:00)

USA 238 DEB - Pass Details

Date: 19 May 2025
Orbit: 900 x 1311 km, 63.4° (Epoch: 01 June)

Event Time Altitude Azimuth Distance (km) Brightness Sun altitude
Rises 23:06:11 0° 307° (NW) 3,871 6.8 -11.4°
Reaches altitude 10° 23:08:44 10° 308° (NW) 2,969 6.2 -11.3°
Maximum altitude 23:15:54 89° 36° (NE) 1,194 4.0 -10.9°
Drops below altitude 10° 23:23:47 10° 130° (SE) 3,241 6.1 -10.3°
Sets 23:26:40 0° 131° (SE) 4,243 6.7 -10.2°
